Jasper, AL

9:34 PM CDT on October 22, 2019 (GMT -0500)
Walker County-Bevill

Weather History for KJFX - September, 2019

Change the Weather History Date:

Saturday, September 21, 2019

  Actual Average Record
Temperature  
Mean Temperature 74 °F -  
Max Temperature 93 °F 83 °F 98 °F (2017)
Min Temperature 55 °F 59 °F 41 °F (1981)
Cooling Degree Days 9    
Growing Degree Days 24 (Base 50)    
Moisture  
Dew Point 60 °F    
Average Humidity 74    
Maximum Humidity 100    
Minimum Humidity 30    
Precipitation  
Precipitation 0.00 in - - ()
Sea Level Pressure  
Sea Level Pressure 30.22 in    
Wind  
Wind Speed - ()    
Max Wind Speed -    
Max Gust Speed -    
Visibility 9.4 miles    
Events      
Averages and records for this station are not official NWS values.
T = Trace of Precipitation, MM = Missing Value Source: Averaged Metar Reports

Daily Weather History Graph

Daily Weather History Graph

Search for Another Location

Airport or City:

Astronomy

Sep. 21, 2019 Rise Set
Actual Time 6:36 AM CDT 6:47 PM CDT
Civil Twilight 6:11 AM CDT 7:12 PM CDT
Nautical Twilight 5:42 AM CDT 7:41 PM CDT
Astronomical Twilight 5:12 AM CDT 8:11 PM CDT
Moon 11:42 PM CDT (9/21) 1:24 PM CDT (9/21)
Length of Visible Light 13h 01m
Length of Day
12h 11m
Waning Gibbous, 54% of the Moon is Illuminated
Sep 21
Waning Gibbous
Sep 21
Last Quarter
Sep 28
New
Oct 5
First Quarter
Oct 13
Full

Hourly Weather History & Observations

Time (CDT) Temp. Heat Index Dew Point Humidity Pressure Visibility Wind Dir Wind Speed Gust Speed Precip Events Conditions
12:15 AM 60.8 °F - 60.8 °F 100% 30.22 in 9.0 mi North - - N/A   Clear
12:35 AM 59.0 °F - 59.0 °F 100% 30.22 in 10.0 mi North - - N/A   Clear
12:55 AM 59.0 °F - 59.0 °F 100% 30.22 in 10.0 mi North - - N/A   Clear
1:15 AM 59.0 °F - 59.0 °F 100% 30.23 in 7.0 mi North - - N/A   Clear
1:35 AM 59.0 °F - 59.0 °F 100% 30.22 in 7.0 mi North - - N/A   Clear
1:55 AM 57.2 °F - 57.2 °F 100% 30.22 in 1.5 mi North - - N/A   Clear
2:15 AM 57.2 °F - 57.2 °F 100% 30.22 in 8.0 mi North - - N/A   Clear
2:55 AM 57.2 °F - 57.2 °F 100% 30.22 in 4.0 mi North - - N/A   Clear
3:15 AM 57.2 °F - 57.2 °F 100% 30.22 in 8.0 mi North - - N/A   Clear
3:35 AM 55.4 °F - 55.4 °F 100% 30.22 in 8.0 mi North - - N/A   Clear
3:55 AM 55.4 °F - 55.4 °F 100% 30.23 in 9.0 mi North - - N/A   Clear
4:15 AM 55.4 °F - 55.4 °F 100% 30.22 in 10.0 mi North - - N/A   Clear
4:35 AM 55.4 °F - 55.4 °F 100% 30.23 in 10.0 mi North - - N/A   Clear
4:55 AM 55.4 °F - 55.4 °F 100% 30.24 in 9.0 mi North - - N/A   Clear
5:15 AM 55.4 °F - 55.4 °F 100% 30.25 in 10.0 mi North - - N/A   Clear
5:35 AM 55.4 °F - 55.4 °F 100% 30.25 in 5.0 mi North - - N/A   Clear
5:55 AM 55.4 °F - 55.4 °F 100% 30.26 in 8.0 mi North - - N/A   Clear
6:15 AM 55.4 °F - 55.4 °F 100% 30.26 in 10.0 mi North - - N/A   Clear
6:35 AM 55.4 °F - 55.4 °F 100% 30.27 in 8.0 mi North - - N/A   Clear
6:55 AM 55.4 °F - 55.4 °F 100% 30.27 in 7.0 mi North - - N/A   Clear
7:15 AM 57.2 °F - 57.2 °F 100% 30.28 in 9.0 mi North - - N/A   Clear
7:35 AM 60.8 °F - 60.8 °F 100% 30.28 in 10.0 mi North - - N/A   Clear
7:55 AM 64.4 °F - 62.6 °F 94% 30.29 in 10.0 mi North - - N/A   Clear
8:15 AM 68.0 °F - 60.8 °F 78% 30.29 in 10.0 mi North - - N/A   Clear
8:35 AM 71.6 °F - 60.8 °F 69% 30.30 in 10.0 mi North - - N/A   Clear
8:55 AM 75.2 °F - 60.8 °F 61% 30.30 in 10.0 mi North - - N/A   Clear
9:15 AM 77.0 °F - 60.8 °F 57% 30.30 in 10.0 mi North - - N/A   Clear
9:35 AM 77.0 °F - 62.6 °F 61% 30.30 in 10.0 mi North - - N/A   Clear
9:55 AM 78.8 °F - 62.6 °F 57% 30.30 in 10.0 mi North - - N/A   Clear
10:15 AM 80.6 °F 81.8 °F 62.6 °F 54% 30.30 in 10.0 mi North - - N/A   Clear
10:35 AM 82.4 °F 83.4 °F 62.6 °F 51% 30.29 in 10.0 mi North - - N/A   Clear
10:55 AM 84.2 °F 85.6 °F 64.4 °F 51% 30.29 in 10.0 mi North - - N/A   Clear
11:15 AM 86.0 °F 87.3 °F 64.4 °F 48% 30.28 in 10.0 mi North - - N/A   Clear
11:35 AM 87.8 °F 89.4 °F 64.4 °F 46% 30.28 in 10.0 mi North - - N/A   Clear
11:55 AM 87.8 °F 88.5 °F 62.6 °F 43% 30.27 in 10.0 mi North - - N/A   Clear
12:15 PM 86.0 °F 86.6 °F 62.6 °F 45% 30.26 in 10.0 mi North - - N/A   Scattered Clouds
12:35 PM 86.0 °F 86.1 °F 60.8 °F 43% 30.25 in 10.0 mi North - - N/A   Mostly Cloudy
12:55 PM 86.0 °F 86.1 °F 60.8 °F 43% 30.24 in 10.0 mi North - - N/A   Scattered Clouds
1:15 PM 87.8 °F 87.6 °F 60.8 °F 40% 30.23 in 10.0 mi North - - N/A   Scattered Clouds
1:35 PM 87.8 °F 87.6 °F 60.8 °F 40% 30.22 in 10.0 mi North - - N/A   Partly Cloudy
1:55 PM 91.4 °F 90.7 °F 59.0 °F 34% 30.21 in 10.0 mi North - - N/A   Partly Cloudy
2:15 PM 87.8 °F 87.6 °F 60.8 °F 40% 30.20 in 10.0 mi North - - N/A   Scattered Clouds
2:35 PM 89.6 °F 88.9 °F 59.0 °F 36% 30.19 in 10.0 mi North - - N/A   Partly Cloudy
2:55 PM 93.2 °F 91.9 °F 57.2 °F 30% 30.18 in 10.0 mi North - - N/A   Scattered Clouds
3:15 PM 89.6 °F 88.9 °F 59.0 °F 36% 30.18 in 10.0 mi North - - N/A   Scattered Clouds
3:35 PM 93.2 °F 91.9 °F 57.2 °F 30% 30.17 in 10.0 mi North - - N/A   Partly Cloudy
3:55 PM 93.2 °F 91.9 °F 57.2 °F 30% 30.16 in 10.0 mi North - - N/A   Clear
4:15 PM 93.2 °F 91.9 °F 57.2 °F 30% 30.16 in 10.0 mi North - - N/A   Clear
4:35 PM 93.2 °F 91.9 °F 57.2 °F 30% 30.15 in 10.0 mi North - - N/A   Clear
4:55 PM 91.4 °F 89.9 °F 57.2 °F 31% 30.15 in 10.0 mi North - - N/A   Clear
5:15 PM 91.4 °F 89.9 °F 57.2 °F 31% 30.15 in 10.0 mi North - - N/A   Clear
5:55 PM 89.6 °F 90.1 °F 62.6 °F 40% 30.15 in 10.0 mi North - - N/A   Clear
6:15 PM 86.0 °F 87.3 °F 64.4 °F 48% 30.15 in 10.0 mi North - - N/A   Clear
6:35 PM 80.6 °F 82.7 °F 66.2 °F 61% 30.15 in 10.0 mi North - - N/A   Clear
6:55 PM 75.2 °F - 66.2 °F 73% 30.15 in 10.0 mi North - - N/A   Clear
7:15 PM 71.6 °F - 64.4 °F 78% 30.15 in 10.0 mi North - - N/A   Clear
7:35 PM 69.8 °F - 64.4 °F 83% 30.16 in 10.0 mi North - - N/A   Clear
7:55 PM 69.8 °F - 64.4 °F 83% 30.17 in 10.0 mi North - - N/A   Clear
8:15 PM 68.0 °F - 64.4 °F 88% 30.17 in 10.0 mi North - - N/A   Scattered Clouds
8:35 PM 68.0 °F - 66.2 °F 94% 30.17 in 9.0 mi North - - N/A   Partly Cloudy
8:55 PM 66.2 °F - 64.4 °F 94% 30.18 in 10.0 mi North - - N/A   Partly Cloudy
9:15 PM 66.2 °F - 66.2 °F 100% 30.18 in 10.0 mi North - - N/A   Partly Cloudy
9:35 PM 66.2 °F - 66.2 °F 100% 30.19 in 10.0 mi North - - N/A   Scattered Clouds
9:55 PM - - - N/A% 30.19 in 10.0 mi North - - N/A   Partly Cloudy
10:15 PM 64.4 °F - 64.4 °F 100% 30.19 in 10.0 mi North - - N/A   Clear
10:35 PM 64.4 °F - 64.4 °F 100% 30.19 in 10.0 mi North - - N/A   Clear
10:55 PM 64.4 °F - 64.4 °F 100% 30.19 in 10.0 mi North - - N/A   Clear
11:15 PM 62.6 °F - 62.6 °F 100% 30.19 in 10.0 mi North - - N/A   Clear
11:35 PM 62.6 °F - 62.6 °F 100% 30.19 in 10.0 mi North - - N/A   Partly Cloudy
11:55 PM 62.6 °F - 62.6 °F 100% 30.18 in 10.0 mi North - - N/A   Partly Cloudy